Location: ???
(35.5616°N, 139.7977°E)
Time: 20:37:54
(UTC+00:00)

Cosmos 2346 Rocket - Pass Details

Date: 17 November 2025
Orbit: 935 x 979 km, 82.9° (Epoch: 08 December)

Event Time Altitude Azimuth Distance (km) Brightness Sun altitude
Rises 19:12:15 0° 187° (S) 3,625 7.5 -25.7°
Reaches altitude 10° 19:14:45 10° 188° (S) 2,676 6.8 -25.2°
Maximum altitude 19:20:52 81° 276° (W) 962 4.3 -24.0°
Drops below altitude 10° 19:26:58 10° 4° (N) 2,663 6.7 -22.7°
Sets 19:29:27 0° 6° (N) 3,607 7.5 -22.2°
